Location: Columbia
(38.9520°N, 92.3340°W)
Time: 11:06:28
(UTC-06:00)

FENGYUN 3A - Visible Passes

Search period start: 11 December 2017 00:00
Search period end: 21 December 2017 00:00
Orbit: 819 x 834 km, 98.4° (Epoch: 10 December)

Date Brightness Start Highest point End Pass type
(mag) Time Alt. Az. Time Alt. Az. Time Alt. Az.
11 Dec 5.0 17:14:30 10° E 17:17:45 17° ENE 17:21:01 10° NNE visible
11 Dec 4.0 18:52:06 10° S 18:57:26 64° W 19:02:47 10° NNW visible
12 Dec 3.5 18:33:07 10° SSE 18:38:30 86° ENE 18:43:54 10° NNW visible
12 Dec 6.7 20:18:24 10° W 20:19:22 10° W 20:20:20 10° WNW visible
13 Dec 3.6 18:14:21 10° SSE 18:19:37 58° ENE 18:24:53 10° N visible
13 Dec 6.3 19:56:51 10° SW 20:00:13 17° W 20:03:34 10° NW visible
14 Dec 6.0 06:34:14 10° NE 06:38:44 27° E 06:43:13 10° SSE visible
14 Dec 4.0 17:55:51 10° SE 18:00:47 39° ENE 18:05:45 10° N visible
14 Dec 5.7 19:36:44 10° SSW 19:41:06 25° W 19:45:29 10° NW visible
15 Dec 6.5 06:16:03 10° NE 06:19:39 18° E 06:23:12 10° SE visible
15 Dec 4.5 17:37:35 10° ESE 17:42:00 27° ENE 17:46:26 10° N visible
15 Dec 5.0 19:17:07 10° SSW 19:22:03 37° W 19:27:01 10° NNW visible
16 Dec 6.9 05:58:45 10° ENE 06:00:30 11° E 06:02:14 10° ESE visible
16 Dec 4.9 17:19:41 10° ESE 17:23:17 19° ENE 17:26:54 10° NNE visible
16 Dec 4.3 18:57:48 10° S 19:03:04 56° W 19:08:20 10° NNW visible
17 Dec 3.6 18:38:44 10° SSE 18:44:06 84° WSW 18:49:30 10° NNW visible
18 Dec 3.5 18:19:54 10° SSE 18:25:13 66° ENE 18:30:32 10° N visible
18 Dec 6.4 20:03:04 10° WSW 20:05:53 14° W 20:08:43 10° WNW visible
19 Dec 5.8 06:39:40 10° NE 06:44:23 31° E 06:49:05 10° SSE visible
19 Dec 3.9 18:01:18 10° SE 18:06:22 44° ENE 18:11:26 10° N visible
19 Dec 5.9 19:42:42 10° SW 19:46:46 22° W 19:50:51 10° NW visible
20 Dec 6.4 06:21:21 10° NE 06:25:19 21° E 06:29:15 10° SE visible
20 Dec 4.3 17:42:57 10° SE 17:47:34 30° ENE 17:52:11 10° N visible
20 Dec 5.3 19:22:56 10° SSW 19:27:42 32° W 19:32:29 10° NNW visible
